Regional Weather Roundup
Issued by NWS

Home | Current Version | Previous Version | Graphics & Text | Print | Product List | Glossary On
Versions: 1 2 3 4 5 6 7 8 9 10 11 12 13 14 15 16 17 18 19 20 21 22 23 24 25 26 27 28 29 30 31 32 33 34 35 36 37 38 39 40 41 42 43 44 45 46 47 48 49 50
000
ASUS43 KLSX 030207
RWRMO

WEATHER SUMMARY FOR MISSOURI
NATIONAL WEATHER SERVICE SPRINGFIELD MO
800 PM CST MON MAR 02 2015

NOTE: "FAIR" INDICATES FEW OR NO CLOUDS BELOW 12,000 FEET WITH NO
       SIGNIFICANT WEATHER AND/OR OBSTRUCTIONS TO VISIBILITY.
       CURRENT SKY AND/OR WEATHER CONDITIONS ARE NOT AVAILABLE FOR
       CHILLICOTHE AND FARMINGTON.

MOZ001>031-035>038-043-044-053-054-030300-
...NORTHERN AND WESTERN MISSOURI...

CITY           SKY/WX    TMP DP  RH WIND       PRES   REMARKS
KANSAS CTY INT CLOUDY    33  20  58 SE9       30.14F WCI  25
KANSAS C DTWN  CLOUDY    35  20  54 SE8       30.15F WCI  29
LEE`S SUMMIT   CLOUDY    33  21  61 SE8       30.15F WCI  26
ST JOSEPH      CLOUDY    33  19  56 SE14      30.15F WCI  23
CHILLICOTHE      N/A     33  21  61 SE8       30.20F WCI  26
KIRKSVILLE     CLOUDY    31  23  72 SE8       30.22F WCI  23

$$
MOZ066>068-077>081-088>096-101>105-030300-
...SOUTHWEST MISSOURI...

CITY           SKY/WX    TMP DP  RH WIND       PRES   REMARKS
SPRINGFIELD    CLOUDY    35  22  58 S18       30.18F WCI  24
JOPLIN         CLOUDY    35  26  69 SE7       30.14F WCI  29

$$
MOZ032>034-039>042-045>050-055>058-069>072-030300-
...CENTRAL MISSOURI...

CITY           SKY/WX    TMP DP  RH WIND       PRES   REMARKS
COLUMBIA       CLOUDY    33  19  56 SE10      30.21F WCI  25
JEFFERSON CITY CLOUDY    34  18  52 E12       30.24F WCI  25
ROLLA          CLOUDY    33  20  58 E9        30.19F WCI  25
SEDALIA        CLOUDY    34  22  61 SE12G21   30.19F WCI  25
WHITEMAN AFB   CLOUDY    34  22  61 SE8       30.16F WCI  27
OSAGE BEACH    CLOUDY    37  21  52 SE5       30.21S

$$
MOZ051-052-059>065-030300-
...EAST CENTRAL MISSOURI...

CITY           SKY/WX    TMP DP  RH WIND       PRES   REMARKS
ST LOUIS INTL  CLOUDY    31  19  61 E9        30.31F WCI  23
SPIRIT OF STL  CLOUDY    31  19  61 E8        30.30S WCI  23
ST CHARLES     CLOUDY    28  20  71 SE6       30.32F WCI  22

$$
MOZ072>076-082>087-097>100-106>115-030300-
...SOUTH CENTRAL AND SOUTHEAST MISSOURI...

CITY           SKY/WX    TMP DP  RH WIND       PRES   REMARKS
CAPE GIRARDEAU CLOUDY    37  23  56 E7        30.29F
FARMINGTON     CLOUDY    30  21  69 E9        30.28F WCI  22
POPLAR BLUFF   CLOUDY    35  22  58 NE3       30.30R
WEST PLAINS    CLOUDY    35  18  49 S7        30.26R WCI  29

$$



USA.gov is the U.S. government's official web portal to all federal, state and local government web resources and services.